Regional Weather Roundup
Issued by NWS Lake Charles, LA

Home | Current Version | Previous Version | Text Only | Print | Product List | Glossary On
Versions: 1 2 3 4 5 6 7 8 9 10 11 12 13 14 15 16 17 18 19 20 21 22 23 24 25 26 27 28 29 30 31 32 33 34 35 36 37 38 39 40 41 42 43 44 45 46 47 48 49 50
000
ASUS44 KLCH 302310
RWRLCH
RWRLCH
REGIONAL WEATHER ROUNDUP
NATIONAL WEATHER SERVICE LAKE CHARLES LA
600 PM CDT SAT AUG 30 2014

Note: "fair" indicates few or no clouds below 12,000 feet with no
significant weather and/or obstructions to visibility.


ACROSS SOUTHEAST TEXAS

CITY           SKY/WX    TMP DP  RH WIND       PRES   REMARKS
BEAUMONT       LGT RAIN  78  76  93 S10       29.92F
BEAUMONT CITY  DRIZZLE   77  76  96 SE6       29.94S
ORANGE         DRIZZLE   77  77 100 SE8       29.95F
JASPER         CLOUDY    78  74  86 SE8       29.96F
$$

ACROSS CENTRAL LOUISIANA

CITY           SKY/WX    TMP DP  RH WIND       PRES   REMARKS
LEESVILLE      CLOUDY    77  74  90 S9        29.96F
FULLERTON      CLOUDY    79  74  84 VRB6      29.94F
ALEXANDRIA INT CLOUDY    78  74  87 S7        29.95S
ESLER FIELD    CLOUDY    78  74  87 S7        29.97S
DERIDDER       CLOUDY    78  75  92 CALM      29.98F FOG
OAKDALE        CLOUDY    77  75  93 S5        29.98R
OPELOUSAS      LGT RAIN  75  73  95 S6        30.00S
$$

ACROSS SOUTHWEST AND SOUTH CENTRAL LOUISIANA

CITY           SKY/WX    TMP DP  RH WIND       PRES   REMARKS
SULPHUR        LGT RAIN  77  76  95 SE9       29.96F
LAKE CHARLES   LGT RAIN  76  74  93 S8        29.96F
CHENNAULT INT  RAIN      77  73  88 S15       29.97
CAMERON PHI    CLEAR     79  73  83 SE9       29.96F
DEQUINCY       DRIZZLE   76  75  95 SE3       29.96F
JENNINGS       RAIN      75  75  98 SE6       29.98F
LAFAYETTE      LGT RAIN  74  72  93 S7        30.02R
NEW IBERIA     RAIN      74  72  93 SW3       30.03S FOG
ABBEVILLE      LGT RAIN  73  72  98 SE6       30.02S
PATTERSON        N/A     75  73  94 W9        30.08R
SALT POINT       N/A     77  74  90 W7        30.04R
$$

SELECTED SITES ACROSS THE REGION

CITY           SKY/WX    TMP DP  RH WIND       PRES   REMARKS
HOUSTON BUSH   PTSUNNY   86  73  66 SE15      29.91R
HOUSTON HOBBY  CLOUDY    83  74  74 SE9       29.91S
GALVESTON      CLOUDY    80  76  87 SE7       29.93F
COLLEGE STAT   MOSUNNY   92  67  43 SE5       29.87F
CONROE         PTSUNNY   86  73  65 SE7       29.91S
HUNTSVILLE     PTSUNNY   88  72  58 SE5       29.90S
LUFKIN         PTSUNNY   88  72  58 SE13      29.91F
SHREVEPORT     PTSUNNY   85  72  65 SE6       29.90F
MONROE         CLOUDY    76  73  91 S10       29.95R FOG
NATCHEZ MS     CLOUDY    75  73  94 S9        30.00S
BATON ROUGE    CLOUDY    76  74  93 S7        30.02S
N.O. INTL ARPT CLOUDY    81  74  79 E6        30.02R
SLIDELL        CLOUDY    77  72  84 CALM      30.03R
$$

MARINE REPORTS

STATION/POSITION TIME  TEMP    WIND        PRES    VSBY  WAVE
                       AIR SEA DIR/SP/G                  HT/PER
                 (UTC) (F)     (DEG/KT/KT) (MB)    (MI)  (FT/S)
BUOY 30 S HIGH I 2300   80 85  140/  4/  6 1013.1F         4/ 7
SEA RIM ST PARK  2300   79     150/  9/ 11 1013.8F
PORT ARTHUR      2300      84  150/  6/ 10 1013.6F
SABINE PASS N    2300   79 83  170/  6/  7 1013.9F
TEXAS POINT      2300   79 82  160/ 12/ 13 1013.9F
CALCASIEU PASS   2300   78 81  170/  8/ 10 1015.5F
LK CHARLES BEACH 2300   76                 1015.3F
MARSH ISLAND     NOT AVBL
FRESH WATER LOCK 2300   75 81  120/  5/  6 1016.2F
AMERADA PASS     2300   76 83  290/ 12/ 16 1017.4R
$$



USA.gov is the U.S. government's official web portal to all federal, state and local government web resources and services.